When you browse on this site, cookies collect data to enhance your experience and personalize the content and advertising you see.
Visit our Privacy Policy to learn more. By continuing to use the site, you agree to this use of cookies and data.
  • In Lithuania
  • List of Countries
  • For 7 days
  • Water Temperature
  • Satellite Maps
  • Weather Map
  • Weather Widgets
  • user-avatar
    Login

    Hourly Weather Yazviny

    Today, 23 April, Tuesday

    Time Temperature Precipitation Wind Pressure Humidity
    00:00 +8°C° 0 mm 2 mps 757 mmHg 58%
    01:00 +8°C° 0 mm 2 mps 757 mmHg 59%
    02:00 +7°C° 0 mm 2 mps 757 mmHg 60%
    03:00 +7°C° 0 mm 2 mps 757 mmHg 60%
    04:00 +7°C° 0 mm 2 mps 757 mmHg 61%
    05:00 +7°C° 0 mm 3 mps 757 mmHg 62%
    06:00 +9°C° 0 mm 3 mps 757 mmHg 60%
    07:00 +10°C° 0 mm 4 mps 757 mmHg 58%
    08:00 +12°C° 0 mm 4 mps 758 mmHg 56%
    09:00 +13°C° 0 mm 5 mps 758 mmHg 49%
    10:00 +15°C° 0 mm 6 mps 758 mmHg 42%
    11:00 +16°C° 0 mm 7 mps 758 mmHg 35%
    12:00 +17°C° 0 mm 7 mps 757 mmHg 35%
    13:00 +17°C° 0 mm 7 mps 757 mmHg 34%
    14:00 +18°C° 0 mm 7 mps 757 mmHg 34%
    15:00 +17°C° 0 mm 7 mps 756 mmHg 36%
    16:00 +17°C° 0 mm 7 mps 756 mmHg 38%
    17:00 +17°C° 0 mm 6 mps 756 mmHg 40%
    18:00 +15°C° 0 mm 6 mps 756 mmHg 44%
    19:00 +13°C° 0 mm 5 mps 756 mmHg 48%
    20:00 +12°C° 0 mm 4 mps 756 mmHg 52%
    21:00 +11°C° 0 mm 4 mps 756 mmHg 54%
    22:00 +11°C° 0 mm 4 mps 756 mmHg 55%
    23:00 +10°C° 0 mm 4 mps 756 mmHg 56%

    Tomorrow, 24 April, Wednesday

    Time Temperature Precipitation Wind Pressure Humidity
    00:00 +10°C° 0 mm 4 mps 756 mmHg 58%
    01:00 +8°C° 0 mm 4 mps 756 mmHg 59%
    02:00 +8°C° 0 mm 4 mps 756 mmHg 61%
    03:00 +7°C° 0 mm 4 mps 756 mmHg 63%
    04:00 +7°C° 0 mm 5 mps 756 mmHg 64%
    05:00 +7°C° 0 mm 5 mps 755 mmHg 66%
    06:00 +8°C° 0 mm 6 mps 755 mmHg 61%
    07:00 +10°C° 0 mm 7 mps 755 mmHg 57%
    08:00 +11°C° 0 mm 8 mps 755 mmHg 52%
    09:00 +12°C° 0 mm 8 mps 755 mmHg 49%
    10:00 +15°C° 0 mm 8 mps 755 mmHg 45%
    11:00 +16°C° 0 mm 9 mps 755 mmHg 42%
    12:00 +17°C° 0 mm 9 mps 755 mmHg 41%
    13:00 +17°C° 0 mm 8 mps 755 mmHg 40%
    14:00 +18°C° 0 mm 8 mps 755 mmHg 39%
    15:00 +18°C° 0 mm 8 mps 755 mmHg 40%
    16:00 +17°C° 0 mm 7 mps 754 mmHg 42%
    17:00 +17°C° 0 mm 7 mps 754 mmHg 43%
    18:00 +16°C° 0 mm 6 mps 754 mmHg 47%
    19:00 +14°C° 0 mm 5 mps 754 mmHg 50%
    20:00 +13°C° 0 mm 4 mps 754 mmHg 54%
    21:00 +12°C° 0 mm 4 mps 754 mmHg 56%
    22:00 +11°C° 0 mm 4 mps 754 mmHg 58%
    23:00 +11°C° 0 mm 4 mps 755 mmHg 60%

    Day after tomorrow, 25 April, Thursday

    Time Temperature Precipitation Wind Pressure Humidity
    00:00 +10°C° 0 mm 4 mps 754 mmHg 63%
    01:00 +9°C° 0 mm 5 mps 754 mmHg 65%
    02:00 +9°C° 0 mm 5 mps 754 mmHg 67%
    03:00 +9°C° 0 mm 5 mps 754 mmHg 68%
    04:00 +8°C° 0 mm 5 mps 754 mmHg 69%
    05:00 +8°C° 0 mm 5 mps 754 mmHg 71%
    06:00 +9°C° 0 mm 5 mps 754 mmHg 68%
    07:00 +10°C° 0 mm 6 mps 754 mmHg 66%
    08:00 +11°C° 0 mm 6 mps 754 mmHg 64%
    09:00 +14°C° 0 mm 6 mps 754 mmHg 61%
    10:00 +16°C° 0 mm 6 mps 754 mmHg 57%
    11:00 +17°C° 0 mm 6 mps 754 mmHg 54%
    12:00 +20°C° 0 mm 6 mps 753 mmHg 52%
    13:00 +21°C° 0 mm 6 mps 753 mmHg 50%
    14:00 +22°C° 0 mm 6 mps 753 mmHg 47%
    15:00 +22°C° 0 mm 6 mps 753 mmHg 48%
    16:00 +21°C° 0 mm 6 mps 752 mmHg 49%
    17:00 +21°C° 0 mm 5 mps 752 mmHg 50%
    18:00 +19°C° 0 mm 5 mps 752 mmHg 54%
    19:00 +18°C° 0 mm 4 mps 752 mmHg 58%
    20:00 +15°C° 0 mm 4 mps 752 mmHg 62%
    21:00 +14°C° 0 mm 4 mps 752 mmHg 64%
    22:00 +13°C° 0 mm 4 mps 752 mmHg 65%
    23:00 +13°C° 0 mm 4 mps 752 mmHg 66%

    26 April, Friday

    Time Temperature Precipitation Wind Pressure Humidity
    00:00 +12°C° 0 mm 4 mps 752 mmHg 69%
    01:00 +12°C° 0 mm 4 mps 751 mmHg 71%
    02:00 +11°C° 0 mm 4 mps 751 mmHg 73%
    03:00 +11°C° 0 mm 4 mps 751 mmHg 75%
    04:00 +11°C° 0 mm 4 mps 751 mmHg 77%
    05:00 +10°C° 0 mm 4 mps 751 mmHg 79%
    06:00 +11°C° 0 mm 4 mps 751 mmHg 77%
    07:00 +13°C° 0 mm 5 mps 750 mmHg 75%
    08:00 +14°C° 0 mm 5 mps 750 mmHg 73%
    09:00 +16°C° 0 mm 5 mps 750 mmHg 69%
    10:00 +17°C° 0 mm 5 mps 750 mmHg 65%
    11:00 +20°C° 0 mm 5 mps 750 mmHg 61%
    12:00 +22°C° 0 mm 5 mps 749 mmHg 58%
    13:00 +23°C° 0 mm 5 mps 749 mmHg 55%
    14:00 +25°C° 0 mm 5 mps 749 mmHg 52%
    15:00 +25°C° 0 mm 5 mps 748 mmHg 52%
    16:00 +25°C° 0 mm 5 mps 748 mmHg 53%
    17:00 +25°C° 0 mm 5 mps 748 mmHg 53%
    18:00 +22°C° 0.5 mm 5 mps 748 mmHg 61%
    19:00 +20°C° 0.5 mm 4 mps 747 mmHg 70%
    20:00 +18°C° 0.5 mm 4 mps 747 mmHg 78%
    21:00 +17°C° 0.5 mm 4 mps 747 mmHg 80%
    22:00 +16°C° 0.5 mm 5 mps 747 mmHg 81%
    23:00 +15°C° 0.5 mm 5 mps 747 mmHg 83%

    27 April, Saturday

    Time Temperature Precipitation Wind Pressure Humidity
    00:00 +15°C° 0.9 mm 5 mps 747 mmHg 85%
    01:00 +14°C° 0.9 mm 4 mps 747 mmHg 87%
    02:00 +14°C° 0.9 mm 4 mps 747 mmHg 88%
    03:00 +13°C° 0 mm 4 mps 746 mmHg 89%
    04:00 +13°C° 0 mm 3 mps 746 mmHg 90%
    05:00 +12°C° 0 mm 3 mps 746 mmHg 91%
    06:00 +14°C° 0 mm 3 mps 746 mmHg 87%
    07:00 +15°C° 0 mm 4 mps 746 mmHg 83%
    08:00 +17°C° 0 mm 4 mps 746 mmHg 79%
    09:00 +18°C° 0 mm 4 mps 746 mmHg 73%
    10:00 +20°C° 0 mm 4 mps 746 mmHg 68%
    11:00 +22°C° 0 mm 4 mps 746 mmHg 62%
    12:00 +25°C° 0 mm 4 mps 745 mmHg 58%
    13:00 +26°C° 0 mm 4 mps 745 mmHg 53%
    14:00 +27°C° 0 mm 4 mps 745 mmHg 49%
    15:00 +26°C° 0.3 mm 4 mps 745 mmHg 50%
    16:00 +26°C° 0.3 mm 4 mps 744 mmHg 52%
    17:00 +26°C° 0.3 mm 4 mps 744 mmHg 53%
    18:00 +22°C° 0.8 mm 3 mps 744 mmHg 63%
    19:00 +20°C° 0.8 mm 2 mps 745 mmHg 73%
    20:00 +18°C° 0.8 mm 2 mps 745 mmHg 83%
    21:00 +17°C° 0.4 mm 2 mps 745 mmHg 85%
    22:00 +18°C° 0.4 mm 1 mps 745 mmHg 87%
    23:00 +16°C° 0.4 mm 1 mps 745 mmHg 89%

    28 April, Sunday

    Time Temperature Precipitation Wind Pressure Humidity
    00:00 +16°C° 0 mm 1 mps 745 mmHg 89%
    01:00 +16°C° 0 mm 1 mps 745 mmHg 90%
    02:00 +15°C° 0 mm 1 mps 745 mmHg 90%
    03:00 +15°C° 0.5 mm 1 mps 745 mmHg 92%
    04:00 +14°C° 0.5 mm 1 mps 745 mmHg 94%
    05:00 +14°C° 0.5 mm 1 mps 745 mmHg 96%
    06:00 +14°C° 0.4 mm 2 mps 745 mmHg 93%
    07:00 +15°C° 0.4 mm 2 mps 745 mmHg 91%
    08:00 +16°C° 0.4 mm 2 mps 746 mmHg 88%
    09:00 +16°C° 0 mm 3 mps 746 mmHg 86%
    10:00 +16°C° 0 mm 3 mps 746 mmHg 84%
    11:00 +17°C° 0 mm 4 mps 746 mmHg 83%
    12:00 +16°C° 0.1 mm 5 mps 746 mmHg 83%
    13:00 +16°C° 0.1 mm 5 mps 747 mmHg 83%
    14:00 +15°C° 0.1 mm 6 mps 747 mmHg 83%
    15:00 +15°C° 0.5 mm 6 mps 747 mmHg 84%
    16:00 +14°C° 0.5 mm 6 mps 747 mmHg 85%
    17:00 +13°C° 0.5 mm 6 mps 747 mmHg 86%
    18:00 +13°C° 0.8 mm 6 mps 747 mmHg 88%
    19:00 +11°C° 0.8 mm 6 mps 747 mmHg 89%
    20:00 +10°C° 0.8 mm 5 mps 748 mmHg 90%
    21:00 +10°C° 1.5 mm 5 mps 748 mmHg 91%
    22:00 +9°C° 1.5 mm 6 mps 748 mmHg 92%
    23:00 +9°C° 1.5 mm 6 mps 748 mmHg 92%
    Show more